Location: Colossi of Memnon
(25.7167°N, 32.6167°E)
Time: 21:42:57
(UTC+00:00)

Envisat - Pass Details

Date: 18 September 2021
Orbit: 764 x 766 km, 98.2° (Epoch: 15 October)

Event Time Altitude Azimuth Distance (km) Brightness Sun altitude
Rises 01:43:50 0° 37° (NE) 3,227 7.0 -25.9°
Reaches altitude 10° 01:47:08 10° 60° (ENE) 2,298 6.4 -25.1°
Maximum altitude 01:50:01 15° 95° (E) 1,955 5.9 -24.5°
Drops below altitude 10° 01:52:54 10° 130° (SE) 2,291 5.9 -23.9°
Sets 01:56:10 0° 153° (SSE) 3,213 6.4 -23.2°
